| time (UTC) | temp F | wind direction | speed MPH | gust MPH | rain 1hr in | rain 24hr in | rain mn in | humidity % | barometer mb |
| 20260906155436 | 89 | 114 | 6.0 | 7.0 | 0.00 | 0.00 | 0.00 | 57 | 1016.1 |
| 20260906154436 | 90 | 67 | 4.0 | 4.0 | 0.00 | 0.00 | 0.00 | 61 | 1016.1 |
| 20260906153436 | 89 | 150 | 2.0 | 2.0 | 0.00 | 0.00 | 0.00 | 63 | 1016.0 |
| 20260906152436 | 87 | 180 | 2.0 | 3.0 | 0.00 | 0.00 | 0.00 | 67 | 1016.1 |
| 20260906151457 | 87 | 123 | 2.0 | 3.0 | 0.00 | 0.00 | 0.00 | 69 | 1016.0 |
| 20260906150436 | 86 | 132 | 4.0 | 4.0 | 0.00 | 0.00 | 0.00 | 71 | 1015.9 |
| 20260906145436 | 86 | 112 | 4.0 | 4.0 | 0.00 | 0.00 | 0.00 | 73 | 1015.9 |
| 20260906144436 | 86 | 86 | 3.0 | 3.0 | 0.00 | 0.00 | 0.00 | 72 | 1016.2 |
| 20260906143438 | 84 | 104 | 2.0 | 2.0 | 0.00 | 0.00 | 0.00 | 75 | 1015.9 |
| 20260906142437 | 85 | 80 | 1.0 | 2.0 | 0.00 | 0.00 | 0.00 | 75 | 1016.0 |
| 20260906141458 | 83 | 143 | 1.0 | 1.0 | 0.00 | 0.00 | 0.00 | 79 | 1016.0 |
| 20260906140437 | 82 | 82 | 2.0 | 3.0 | 0.00 | 0.00 | 0.00 | 81 | 1016.0 |
| 20260906135437 | 82 | 94 | 3.0 | 3.0 | 0.00 | 0.00 | 0.00 | 82 | 1015.8 |
| 20260906134457 | 81 | 132 | 2.0 | 2.0 | 0.00 | 0.00 | 0.00 | 83 | 1015.9 |
| 20260906133436 | 80 | 114 | 3.0 | 3.0 | 0.00 | 0.00 | 0.00 | 84 | 1015.7 |
| 20260906132438 | 80 | 83 | 1.0 | 2.0 | 0.00 | 0.00 | 0.00 | 84 | 1015.9 |
| 20260906131436 | 79 | 88 | 0.0 | 0.0 | 0.00 | 0.00 | 0.00 | 87 | 1015.9 |
| 20260906130436 | 78 | 111 | 1.0 | 1.0 | 0.00 | 0.00 | 0.00 | 88 | 1015.9 |
| 20260906125436 | 78 | 136 | 1.0 | 1.0 | 0.00 | 0.00 | 0.00 | 88 | 1015.8 |
| 20260906124456 | 77 | 137 | 0.0 | 0.0 | 0.00 | 0.00 | 0.00 | 90 | 1015.6 |
| 20260906123436 | 76 | 137 | 1.0 | 1.0 | 0.00 | 0.00 | 0.00 | 92 | 1015.5 |
| 20260906122437 | 75 | 174 | 1.0 | 1.0 | 0.00 | 0.00 | 0.00 | 92 | 1015.5 |
| 20260906121437 | 75 | 169 | 0.0 | 0.0 | 0.00 | 0.00 | 0.00 | 93 | 1015.4 |
| 20260906120436 | 76 | 169 | 0.0 | 0.0 | 0.00 | 0.00 | 0.00 | 91 | 1015.3 |
| 20260906115437 | 76 | 170 | 1.0 | 1.0 | 0.00 | 0.00 | 0.00 | 91 | 1015.1 |
| 20260906114517 | 76 | 172 | 1.0 | 1.0 | 0.00 | 0.00 | 0.00 | 90 | 1014.9 |
| 20260906113437 | 77 | 172 | 0.0 | 0.0 | 0.00 | 0.00 | 0.00 | 89 | 1015.1 |
| 20260906112457 | 77 | 172 | 1.0 | 1.0 | 0.00 | 0.00 | 0.00 | 89 | 1015.0 |
| 20260906111437 | 77 | 172 | 2.0 | 2.0 | 0.00 | 0.00 | 0.00 | 88 | 1015.0 |
| 20260906110437 | 77 | 174 | 2.0 | 3.0 | 0.00 | 0.00 | 0.00 | 88 | 1015.2 |
| 20260906105437 | 77 | 189 | 4.0 | 4.0 | 0.00 | 0.00 | 0.00 | 88 | 1014.9 |
| 20260906104437 | 77 | 156 | 2.0 | 2.0 | 0.00 | 0.00 | 0.00 | 87 | 1014.7 |
| 20260906103438 | 77 | 152 | 2.0 | 2.0 | 0.00 | 0.00 | 0.00 | 88 | 1014.7 |
| 20260906102437 | 77 | 162 | 2.0 | 2.0 | 0.00 | 0.00 | 0.00 | 87 | 1014.7 |
| 20260906101437 | 78 | 118 | 2.0 | 2.0 | 0.00 | 0.00 | 0.00 | 88 | 1014.8 |
| 20260906100437 | 77 | 119 | 1.0 | 1.0 | 0.00 | 0.00 | 0.00 | 89 | 1014.8 |
| 20260906095437 | 77 | 0.0 | 0.0 | 0.00 | 0.00 | 0.00 | 88 | 1014.6 | |
| 20260906094436 | 77 | 119 | 0.0 | 0.0 | 0.00 | 0.00 | 0.00 | 88 | 1014.4 |
| 20260906093437 | 78 | 119 | 1.0 | 1.0 | 0.00 | 0.00 | 0.00 | 86 | 1014.3 |
| 20260906092437 | 78 | 119 | 0.0 | 1.0 | 0.00 | 0.00 | 0.00 | 86 | 1014.3 |
| 20260906091436 | 78 | 119 | 1.0 | 1.0 | 0.00 | 0.00 | 0.00 | 86 | 1014.2 |
| 20260906090437 | 78 | 125 | 2.0 | 2.0 | 0.00 | 0.00 | 0.00 | 86 | 1014.1 |
| 20260906085437 | 78 | 161 | 2.0 | 2.0 | 0.00 | 0.00 | 0.00 | 85 | 1014.1 |
| 20260906084437 | 78 | 151 | 2.0 | 2.0 | 0.00 | 0.00 | 0.00 | 84 | 1014.1 |
| 20260906083437 | 78 | 141 | 1.0 | 1.0 | 0.00 | 0.00 | 0.00 | 84 | 1014.0 |
| 20260906082437 | 78 | 149 | 2.0 | 3.0 | 0.00 | 0.00 | 0.00 | 83 | 1013.9 |
| 20260906081437 | 78 | 133 | 4.0 | 4.0 | 0.00 | 0.00 | 0.00 | 83 | 1013.9 |
| 20260906080436 | 79 | 165 | 2.0 | 2.0 | 0.00 | 0.00 | 0.00 | 82 | 1014.1 |
| 20260906075437 | 79 | 167 | 2.0 | 2.0 | 0.00 | 0.00 | 0.00 | 81 | 1014.1 |
| 20260906074437 | 79 | 147 | 3.0 | 3.0 | 0.00 | 0.00 | 0.00 | 80 | 1014.3 |
| 20260906073438 | 80 | 170 | 3.0 | 4.0 | 0.00 | 0.00 | 0.00 | 79 | 1014.0 |
| 20260906072437 | 80 | 125 | 2.0 | 2.0 | 0.00 | 0.00 | 0.00 | 78 | 1014.0 |
| 20260906071457 | 80 | 0.0 | 0.0 | 0.00 | 0.00 | 0.00 | 78 | 1014.1 | |
| 20260906070437 | 80 | 182 | 1.0 | 1.0 | 0.00 | 0.00 | 0.00 | 77 | 1014.4 |
| 20260906065437 | 81 | 177 | 2.0 | 2.0 | 0.00 | 0.00 | 0.00 | 76 | 1014.5 |
| 20260906064436 | 81 | 190 | 3.0 | 4.0 | 0.00 | 0.00 | 0.00 | 75 | 1014.3 |
| 20260906063458 | 81 | 184 | 3.0 | 4.0 | 0.00 | 0.00 | 0.00 | 74 | 1014.5 |
| 20260906062518 | 81 | 166 | 2.0 | 3.0 | 0.00 | 0.00 | 0.00 | 74 | 1014.1 |
| 20260906061437 | 81 | 155 | 2.0 | 2.0 | 0.00 | 0.00 | 0.00 | 74 | 1014.3 |
| 20260906060437 | 81 | 128 | 4.0 | 4.0 | 0.00 | 0.00 | 0.00 | 73 | 1014.4 |
| 20260906055437 | 81 | 95 | 2.0 | 3.0 | 0.00 | 0.00 | 0.00 | 74 | 1014.4 |
| 20260906054437 | 81 | 133 | 1.0 | 1.0 | 0.00 | 0.00 | 0.00 | 73 | 1014.5 |
| 20260906053437 | 82 | 176 | 0.0 | 0.0 | 0.00 | 0.00 | 0.00 | 70 | 1014.5 |
| 20260906052457 | 82 | 141 | 4.0 | 4.0 | 0.00 | 0.00 | 0.00 | 70 | 1014.3 |
| 20260906051437 | 82 | 151 | 4.0 | 4.0 | 0.00 | 0.00 | 0.00 | 70 | 1014.5 |
| 20260906050437 | 83 | 178 | 1.0 | 1.0 | 0.00 | 0.00 | 0.00 | 70 | 1014.0 |
| 20260906045437 | 83 | 176 | 2.0 | 2.0 | 0.00 | 0.00 | 0.00 | 70 | 1014.0 |
| 20260906044436 | 83 | 140 | 3.0 | 4.0 | 0.00 | 0.00 | 0.00 | 70 | 1014.3 |
| 20260906043457 | 83 | 172 | 2.0 | 3.0 | 0.00 | 0.00 | 0.00 | 70 | 1014.5 |
| 20260906042437 | 83 | 146 | 1.0 | 1.0 | 0.00 | 0.00 | 0.00 | 69 | 1014.4 |
| 20260906041437 | 84 | 172 | 3.0 | 4.0 | 0.00 | 0.00 | 0.00 | 68 | 1014.5 |
| 20260906040437 | 84 | 159 | 2.0 | 2.0 | 0.00 | 0.00 | 0.00 | 68 | 1014.4 |
| 20260906035438 | 84 | 120 | 3.0 | 3.0 | 0.00 | 0.00 | 0.00 | 67 | 1014.4 |
| 20260906034437 | 84 | 174 | 3.0 | 3.0 | 0.00 | 0.00 | 0.00 | 66 | 1014.3 |
| 20260906033437 | 85 | 159 | 4.0 | 4.0 | 0.00 | 0.00 | 0.00 | 65 | 1014.3 |
| 20260906032457 | 85 | 198 | 3.0 | 3.0 | 0.00 | 0.00 | 0.00 | 64 | 1014.4 |
| 20260906031436 | 85 | 169 | 1.0 | 1.0 | 0.00 | 0.00 | 0.00 | 63 | 1014.4 |
| 20260906030436 | 86 | 153 | 2.0 | 2.0 | 0.00 | 0.00 | 0.00 | 62 | 1014.2 |
| 20260906025436 | 86 | 159 | 4.0 | 6.0 | 0.00 | 0.00 | 0.00 | 61 | 1014.5 |
| 20260906024437 | 86 | 171 | 2.0 | 4.0 | 0.00 | 0.00 | 0.00 | 60 | 1014.1 |
| 20260906023437 | 86 | 162 | 4.0 | 4.0 | 0.00 | 0.00 | 0.00 | 60 | 1013.9 |
| 20260906022437 | 87 | 168 | 4.0 | 4.0 | 0.00 | 0.00 | 0.00 | 58 | 1013.9 |
| 20260906021457 | 87 | 181 | 5.0 | 6.0 | 0.00 | 0.00 | 0.00 | 58 | 1013.7 |
| 20260906020436 | 87 | 147 | 4.0 | 6.0 | 0.00 | 0.00 | 0.00 | 57 | 1013.7 |
| 20260906015437 | 87 | 184 | 6.0 | 8.0 | 0.00 | 0.00 | 0.00 | 56 | 1013.6 |
| 20260906014436 | 88 | 98 | 7.0 | 7.0 | 0.00 | 0.00 | 0.00 | 55 | 1013.3 |
| 20260906013516 | 88 | 134 | 5.0 | 8.0 | 0.00 | 0.00 | 0.00 | 55 | 1013.4 |
| 20260906012437 | 89 | 195 | 9.0 | 10.0 | 0.00 | 0.00 | 0.00 | 55 | 1013.3 |
| 20260906011437 | 89 | 166 | 6.0 | 8.0 | 0.00 | 0.00 | 0.00 | 53 | 1013.0 |
| 20260906010457 | 90 | 137 | 10.0 | 15.0 | 0.00 | 0.00 | 0.00 | 52 | 1013.0 |
| 20260906005436 | 92 | 145 | 10.0 | 11.0 | 0.00 | 0.00 | 0.00 | 49 | 1012.5 |
| 20260906004437 | 93 | 138 | 10.0 | 13.0 | 0.00 | 0.00 | 0.00 | 47 | 1012.4 |
| 20260906003437 | 95 | 172 | 6.0 | 6.0 | 0.00 | 0.00 | 0.00 | 42 | 1012.3 |
| 20260906002437 | 95 | 158 | 2.0 | 2.0 | 0.00 | 0.00 | 0.00 | 40 | 1012.3 |
| 20260906001437 | 96 | 134 | 3.0 | 3.0 | 0.00 | 0.00 | 0.00 | 39 | 1012.4 |
| 20260906000437 | 97 | 174 | 2.0 | 3.0 | 0.00 | 0.00 | 0.00 | 37 | 1012.3 |
| 20260905235436 | 98 | 169 | 3.0 | 3.0 | 0.00 | 0.00 | 0.00 | 37 | 1012.3 |
| 20260905234438 | 98 | 184 | 3.0 | 3.0 | 0.00 | 0.00 | 0.00 | 37 | 1012.0 |
| 20260905233436 | 98 | 162 | 2.0 | 3.0 | 0.00 | 0.00 | 0.00 | 36 | 1012.3 |
| 20260905232436 | 96 | 109 | 4.0 | 4.0 | 0.00 | 0.00 | 0.00 | 38 | 1012.1 |
| 20260905231436 | 97 | 61 | 4.0 | 6.0 | 0.00 | 0.00 | 0.00 | 38 | 1012.2 |
| 20260905230437 | 97 | 133 | 3.0 | 3.0 | 0.00 | 0.00 | 0.00 | 37 | 1012.2 |
| 20260905225437 | 97 | 110 | 5.0 | 6.0 | 0.00 | 0.00 | 0.00 | 38 | 1012.3 |
| 20260905224517 | 97 | 60 | 4.0 | 4.0 | 0.00 | 0.00 | 0.00 | 37 | 1012.0 |
| 20260905223438 | 97 | 94 | 5.0 | 6.0 | 0.00 | 0.00 | 0.00 | 37 | 1012.1 |
| 20260905222458 | 97 | 153 | 6.0 | 8.0 | 0.00 | 0.00 | 0.00 | 36 | 1012.1 |
| 20260905221437 | 97 | 116 | 8.0 | 8.0 | 0.00 | 0.00 | 0.00 | 36 | 1012.3 |
| 20260905220436 | 98 | 112 | 6.0 | 7.0 | 0.00 | 0.00 | 0.00 | 35 | 1012.2 |
| 20260905215457 | 97 | 129 | 7.0 | 8.0 | 0.00 | 0.00 | 0.00 | 36 | 1012.3 |
| 20260905214436 | 98 | 78 | 3.0 | 4.0 | 0.00 | 0.00 | 0.00 | 35 | 1012.3 |
| 20260905213436 | 98 | 166 | 6.0 | 7.0 | 0.00 | 0.00 | 0.00 | 34 | 1012.3 |
| 20260905212436 | 97 | 63 | 2.0 | 2.0 | 0.00 | 0.00 | 0.00 | 36 | 1012.6 |
| 20260905211436 | 98 | 88 | 5.0 | 6.0 | 0.00 | 0.00 | 0.00 | 34 | 1012.7 |
| 20260905210436 | 98 | 186 | 1.0 | 1.0 | 0.00 | 0.00 | 0.00 | 35 | 1013.1 |
| 20260905205436 | 96 | 72 | 2.0 | 3.0 | 0.00 | 0.00 | 0.00 | 35 | 1012.9 |
| 20260905204436 | 98 | 116 | 5.0 | 6.0 | 0.00 | 0.00 | 0.00 | 35 | 1013.2 |
| 20260905203436 | 99 | 186 | 3.0 | 3.0 | 0.00 | 0.00 | 0.00 | 35 | 1013.3 |
| 20260905202436 | 99 | 180 | 4.0 | 4.0 | 0.00 | 0.00 | 0.00 | 35 | 1013.4 |
| 20260905201436 | 98 | 224 | 4.0 | 4.0 | 0.00 | 0.00 | 0.00 | 35 | 1013.5 |
| 20260905200436 | 98 | 128 | 6.0 | 6.0 | 0.00 | 0.00 | 0.00 | 36 | 1013.8 |
| 20260905195436 | 99 | 227 | 2.0 | 2.0 | 0.00 | 0.00 | 0.00 | 35 | 1013.9 |
| 20260905194436 | 99 | 224 | 4.0 | 6.0 | 0.00 | 0.00 | 0.00 | 36 | 1013.9 |
| 20260905193437 | 95 | 174 | 2.0 | 3.0 | 0.00 | 0.00 | 0.00 | 38 | 1014.2 |
| 20260905192437 | 98 | 146 | 8.0 | 9.0 | 0.00 | 0.00 | 0.00 | 36 | 1014.4 |
| 20260905191436 | 96 | 172 | 2.0 | 2.0 | 0.00 | 0.00 | 0.00 | 38 | 1014.6 |
| 20260905190436 | 96 | 114 | 5.0 | 6.0 | 0.00 | 0.00 | 0.00 | 40 | 1014.9 |
| 20260905185436 | 95 | 133 | 6.0 | 7.0 | 0.00 | 0.00 | 0.00 | 42 | 1014.8 |
| 20260905184436 | 95 | 196 | 3.0 | 3.0 | 0.00 | 0.00 | 0.00 | 38 | 1015.0 |
| 20260905183436 | 94 | 161 | 4.0 | 4.0 | 0.00 | 0.00 | 0.00 | 42 | 1015.3 |
| 20260905182436 | 95 | 151 | 6.0 | 6.0 | 0.00 | 0.00 | 0.00 | 40 | 1015.2 |
| 20260905181436 | 93 | 98 | 7.0 | 9.0 | 0.00 | 0.00 | 0.00 | 42 | 1015.4 |
| 20260905180437 | 94 | 88 | 8.0 | 9.0 | 0.00 | 0.00 | 0.00 | 45 | 1015.5 |
| 20260905175437 | 93 | 120 | 10.0 | 13.0 | 0.00 | 0.00 | 0.00 | 46 | 1015.8 |
| 20260905174436 | 93 | 92 | 4.0 | 8.0 | 0.00 | 0.00 | 0.00 | 45 | 1015.9 |
| 20260905173437 | 93 | 95 | 6.0 | 6.0 | 0.00 | 0.00 | 0.00 | 46 | 1016.0 |
| 20260905172437 | 92 | 139 | 1.0 | 1.0 | 0.00 | 0.00 | 0.00 | 47 | 1015.9 |
| 20260905171436 | 94 | 136 | 7.0 | 9.0 | 0.00 | 0.00 | 0.00 | 46 | 1015.9 |
| 20260905170437 | 95 | 62 | 3.0 | 4.0 | 0.00 | 0.00 | 0.00 | 45 | 1016.2 |
| 20260905165537 | 95 | 199 | 2.0 | 2.0 | 0.00 | 0.00 | 0.00 | 45 | 1016.3 |
| 20260905164436 | 92 | 200 | 2.0 | 3.0 | 0.00 | 0.00 | 0.00 | 48 | 1016.2 |
| 20260905163437 | 93 | 210 | 2.0 | 2.0 | 0.00 | 0.00 | 0.00 | 46 | 1016.3 |
| 20260905162437 | 94 | 180 | 2.0 | 2.0 | 0.00 | 0.00 | 0.00 | 46 | 1016.3 |
| 20260905161437 | 91 | 179 | 2.0 | 2.0 | 0.00 | 0.00 | 0.00 | 50 | 1016.4 |
| 20260905160436 | 93 | 161 | 1.0 | 1.0 | 0.00 | 0.00 | 0.00 | 47 | 1016.4 |